• In Hungary
  • List of Countries
  • For 7 days
  • Water Temperature
  • Satellite Maps
  • Weather Map
  • News
  • Weather Widgets
  • user-avatar
    Login

    Hourly Weather Malczyn

    Today, 18 September, Tuesday

    Time Temperature Precipitation Wind Pressure Humidity
    00:00 +16°C° 0 mm 2 mps 757 mmHg 67%
    01:00 +15°C° 0 mm 2 mps 757 mmHg 68%
    02:00 +15°C° 0 mm 2 mps 756 mmHg 69%
    03:00 +15°C° 0 mm 2 mps 756 mmHg 71%
    04:00 +15°C° 0 mm 2 mps 756 mmHg 72%
    05:00 +16°C° 0 mm 2 mps 756 mmHg 71%
    06:00 +16°C° 0 mm 2 mps 757 mmHg 70%
    07:00 +17°C° 0 mm 2 mps 757 mmHg 68%
    08:00 +19°C° 0 mm 2 mps 757 mmHg 63%
    09:00 +21°C° 0 mm 2 mps 757 mmHg 58%
    10:00 +24°C° 0 mm 3 mps 757 mmHg 52%
    11:00 +26°C° 0 mm 3 mps 756 mmHg 49%
    12:00 +27°C° 0 mm 3 mps 756 mmHg 46%
    13:00 +28°C° 0 mm 4 mps 756 mmHg 43%
    14:00 +27°C° 0 mm 4 mps 755 mmHg 44%
    15:00 +27°C° 0 mm 3 mps 755 mmHg 46%
    16:00 +27°C° 0 mm 3 mps 755 mmHg 47%
    17:00 +25°C° 0 mm 3 mps 755 mmHg 52%
    18:00 +22°C° 0 mm 3 mps 755 mmHg 57%
    19:00 +20°C° 0 mm 3 mps 755 mmHg 63%
    20:00 +20°C° 0 mm 3 mps 755 mmHg 65%
    21:00 +20°C° 0 mm 3 mps 755 mmHg 67%
    22:00 +19°C° 0 mm 3 mps 755 mmHg 68%
    23:00 +19°C° 0 mm 3 mps 755 mmHg 69%

    Tomorrow, 19 September, Wednesday

    Time Temperature Precipitation Wind Pressure Humidity
    00:00 +18°C° 0 mm 3 mps 755 mmHg 70%
    01:00 +18°C° 0 mm 3 mps 755 mmHg 71%
    02:00 +18°C° 0 mm 3 mps 755 mmHg 72%
    03:00 +17°C° 0 mm 3 mps 755 mmHg 73%
    04:00 +17°C° 0 mm 3 mps 755 mmHg 74%
    05:00 +18°C° 0 mm 3 mps 755 mmHg 71%
    06:00 +18°C° 0 mm 3 mps 755 mmHg 68%
    07:00 +19°C° 0 mm 3 mps 755 mmHg 65%
    08:00 +21°C° 0 mm 3 mps 755 mmHg 60%
    09:00 +23°C° 0 mm 4 mps 755 mmHg 54%
    10:00 +26°C° 0 mm 4 mps 755 mmHg 49%
    11:00 +27°C° 0 mm 4 mps 755 mmHg 46%
    12:00 +28°C° 0 mm 4 mps 755 mmHg 44%
    13:00 +29°C° 0 mm 4 mps 755 mmHg 42%
    14:00 +29°C° 0 mm 3 mps 755 mmHg 43%
    15:00 +29°C° 0 mm 3 mps 755 mmHg 44%
    16:00 +29°C° 0 mm 2 mps 755 mmHg 46%
    17:00 +27°C° 0 mm 2 mps 755 mmHg 51%
    18:00 +25°C° 0 mm 2 mps 755 mmHg 56%
    19:00 +23°C° 0 mm 1 mps 756 mmHg 61%
    20:00 +23°C° 0 mm 2 mps 756 mmHg 63%
    21:00 +21°C° 0 mm 2 mps 756 mmHg 65%
    22:00 +21°C° 0 mm 2 mps 756 mmHg 66%
    23:00 +20°C° 0 mm 2 mps 756 mmHg 68%

    Day after tomorrow, 20 September, Thursday

    Time Temperature Precipitation Wind Pressure Humidity
    00:00 +21°C° 0 mm 1 mps 756 mmHg 70%
    01:00 +21°C° 0 mm 1 mps 756 mmHg 71%
    02:00 +20°C° 0 mm 1 mps 756 mmHg 73%
    03:00 +20°C° 0 mm 1 mps 756 mmHg 75%
    04:00 +19°C° 0 mm 1 mps 756 mmHg 77%
    05:00 +20°C° 0 mm 1 mps 756 mmHg 75%
    06:00 +20°C° 0 mm 2 mps 756 mmHg 73%
    07:00 +20°C° 0 mm 2 mps 756 mmHg 71%
    08:00 +23°C° 0 mm 2 mps 756 mmHg 65%
    09:00 +25°C° 0 mm 2 mps 756 mmHg 58%
    10:00 +27°C° 0 mm 3 mps 756 mmHg 51%
    11:00 +28°C° 0 mm 3 mps 756 mmHg 48%
    12:00 +29°C° 0 mm 3 mps 755 mmHg 45%
    13:00 +30°C° 0 mm 3 mps 755 mmHg 41%
    14:00 +30°C° 0 mm 3 mps 755 mmHg 42%
    15:00 +29°C° 0 mm 3 mps 755 mmHg 43%
    16:00 +29°C° 0 mm 3 mps 755 mmHg 44%
    17:00 +27°C° 0 mm 2 mps 754 mmHg 48%
    18:00 +25°C° 0 mm 2 mps 754 mmHg 52%
    19:00 +23°C° 0 mm 2 mps 754 mmHg 56%
    20:00 +23°C° 0 mm 2 mps 754 mmHg 56%
    21:00 +21°C° 0 mm 2 mps 754 mmHg 57%
    22:00 +20°C° 0 mm 3 mps 754 mmHg 57%
    23:00 +20°C° 0 mm 3 mps 754 mmHg 58%

    21 September, Friday

    Time Temperature Precipitation Wind Pressure Humidity
    00:00 +19°C° 0 mm 3 mps 754 mmHg 59%
    01:00 +19°C° 0 mm 3 mps 754 mmHg 59%
    02:00 +18°C° 0 mm 3 mps 754 mmHg 60%
    03:00 +18°C° 0 mm 3 mps 753 mmHg 61%
    04:00 +17°C° 0 mm 3 mps 753 mmHg 62%
    05:00 +18°C° 0 mm 3 mps 753 mmHg 62%
    06:00 +19°C° 0 mm 4 mps 753 mmHg 62%
    07:00 +19°C° 0 mm 4 mps 753 mmHg 61%
    08:00 +21°C° 0 mm 4 mps 752 mmHg 57%
    09:00 +23°C° 0 mm 5 mps 752 mmHg 52%
    10:00 +26°C° 0 mm 5 mps 752 mmHg 47%
    11:00 +27°C° 0 mm 6 mps 751 mmHg 44%
    12:00 +28°C° 0 mm 6 mps 750 mmHg 41%
    13:00 +29°C° 0 mm 6 mps 750 mmHg 38%
    14:00 +29°C° 0 mm 6 mps 749 mmHg 38%
    15:00 +29°C° 0 mm 5 mps 748 mmHg 39%
    16:00 +29°C° 0 mm 5 mps 748 mmHg 39%
    17:00 +27°C° 0 mm 5 mps 747 mmHg 41%
    18:00 +26°C° 0 mm 5 mps 747 mmHg 44%
    19:00 +23°C° 0 mm 5 mps 747 mmHg 46%
    20:00 +23°C° 0 mm 5 mps 747 mmHg 46%
    21:00 +23°C° 0 mm 5 mps 746 mmHg 46%
    22:00 +22°C° 0 mm 6 mps 746 mmHg 46%
    23:00 +22°C° 0.1 mm 6 mps 747 mmHg 51%

    22 September, Saturday

    Time Temperature Precipitation Wind Pressure Humidity
    00:00 +21°C° 0.1 mm 6 mps 747 mmHg 55%
    01:00 +21°C° 0.1 mm 6 mps 747 mmHg 59%
    02:00 +19°C° 0.6 mm 6 mps 748 mmHg 66%
    03:00 +16°C° 0.6 mm 6 mps 748 mmHg 73%
    04:00 +14°C° 0.6 mm 6 mps 749 mmHg 80%
    05:00 +13°C° 0.4 mm 6 mps 750 mmHg 81%
    06:00 +13°C° 0.4 mm 6 mps 751 mmHg 82%
    07:00 +11°C° 0.4 mm 6 mps 752 mmHg 83%
    08:00 +11°C° 0.4 mm 6 mps 752 mmHg 80%
    09:00 +11°C° 0.4 mm 6 mps 753 mmHg 78%
    10:00 +11°C° 0.4 mm 6 mps 753 mmHg 76%
    11:00 +11°C° 0.1 mm 6 mps 754 mmHg 73%
    12:00 +13°C° 0.1 mm 6 mps 754 mmHg 70%
    13:00 +13°C° 0.1 mm 6 mps 754 mmHg 67%
    14:00 +13°C° 0.1 mm 6 mps 754 mmHg 64%
    15:00 +14°C° 0.1 mm 5 mps 754 mmHg 61%
    16:00 +14°C° 0.1 mm 5 mps 754 mmHg 58%
    17:00 +13°C° 0 mm 4 mps 755 mmHg 62%
    18:00 +12°C° 0 mm 3 mps 755 mmHg 65%
    19:00 +11°C° 0 mm 3 mps 755 mmHg 69%
    20:00 +10°C° 0 mm 3 mps 756 mmHg 69%
    21:00 +10°C° 0 mm 3 mps 756 mmHg 69%
    22:00 +10°C° 0 mm 3 mps 756 mmHg 70%
    23:00 +10°C° 0 mm 3 mps 756 mmHg 71%

    23 September, Sunday

    Time Temperature Precipitation Wind Pressure Humidity
    00:00 +9°C° 0 mm 3 mps 756 mmHg 72%
    01:00 +9°C° 0 mm 3 mps 756 mmHg 72%
    02:00 +9°C° 0 mm 3 mps 756 mmHg 74%
    03:00 +8°C° 0 mm 3 mps 756 mmHg 77%
    04:00 +8°C° 0 mm 3 mps 756 mmHg 79%
    05:00 +9°C° 0 mm 3 mps 756 mmHg 77%
    06:00 +8°C° 0 mm 4 mps 756 mmHg 76%
    07:00 +10°C° 0 mm 4 mps 756 mmHg 74%
    08:00 +11°C° 0 mm 4 mps 756 mmHg 68%
    09:00 +13°C° 0 mm 4 mps 756 mmHg 61%
    10:00 +14°C° 0 mm 5 mps 756 mmHg 54%
    11:00 +15°C° 0 mm 4 mps 756 mmHg 51%
    12:00 +17°C° 0 mm 4 mps 755 mmHg 48%
    13:00 +17°C° 0 mm 4 mps 755 mmHg 45%
    14:00 +17°C° 0 mm 4 mps 754 mmHg 45%
    15:00 +17°C° 0 mm 4 mps 753 mmHg 45%
    16:00 +17°C° 0 mm 3 mps 753 mmHg 45%
    17:00 +16°C° 0 mm 3 mps 752 mmHg 49%
    18:00 +14°C° 0 mm 3 mps 751 mmHg 52%
    19:00 +12°C° 0 mm 4 mps 751 mmHg 56%
    20:00 +13°C° 0.1 mm 4 mps 750 mmHg 55%
    21:00 +13°C° 0.1 mm 5 mps 749 mmHg 54%
    22:00 +13°C° 0.1 mm 5 mps 749 mmHg 54%
    23:00 +13°C° 1 mm 6 mps 747 mmHg 59%
    Show more